TimeCDT,TemperatureF,Dew PointF,Humidity,Sea Level PressureIn,VisibilityMPH,Wind Direction,Wind SpeedMPH,Gust SpeedMPH,PrecipitationIn,Events,Conditions,WindDirDegrees,DateUTC
12:38 AM,75.2,71.6,89,30.00,10.0,ESE,3.5,-,N/A,,Mostly Cloudy,110,2013-09-10 05:38:00
12:51 AM,75.0,71.1,87,29.94,10.0,East,3.5,-,N/A,,Mostly Cloudy,90,2013-09-10 05:51:00
1:17 AM,75.2,71.6,89,29.99,10.0,East,3.5,-,N/A,,Mostly Cloudy,80,2013-09-10 06:17:00
1:51 AM,75.9,72.0,87,29.94,10.0,ESE,4.6,-,N/A,,Overcast,110,2013-09-10 06:51:00
2:33 AM,75.2,71.6,89,30.00,10.0,East,5.8,-,N/A,,Overcast,100,2013-09-10 07:33:00
2:51 AM,75.9,72.0,87,29.94,10.0,East,5.8,-,N/A,,Overcast,100,2013-09-10 07:51:00
3:51 AM,75.9,73.0,91,29.94,10.0,ESE,6.9,-,N/A,,Overcast,110,2013-09-10 08:51:00
4:51 AM,75.9,73.0,91,29.93,5.0,East,6.9,-,0.07,Rain,Light Rain,80,2013-09-10 09:51:00
5:44 AM,75.2,73.4,94,29.99,10.0,East,5.8,-,0.00,,Overcast,100,2013-09-10 10:44:00
5:51 AM,75.0,73.0,94,29.94,10.0,East,5.8,-,0.00,,Overcast,100,2013-09-10 10:51:00
6:51 AM,75.0,72.0,90,29.96,10.0,East,6.9,-,N/A,,Overcast,100,2013-09-10 11:51:00
7:03 AM,75.2,71.6,89,30.01,10.0,East,6.9,-,N/A,,Mostly Cloudy,100,2013-09-10 12:03:00
7:18 AM,75.2,71.6,89,30.02,10.0,ESE,8.1,-,N/A,,Mostly Cloudy,110,2013-09-10 12:18:00
7:51 AM,75.0,73.0,94,29.97,7.0,East,5.8,-,0.01,Rain,Light Rain,100,2013-09-10 12:51:00
8:44 AM,75.2,73.4,94,30.04,3.0,SSE,10.4,-,0.02,Rain,Light Rain,150,2013-09-10 13:44:00
8:51 AM,75.9,73.0,91,29.99,3.0,SE,6.9,-,0.09,Rain,Light Rain,140,2013-09-10 13:51:00
9:22 AM,77.0,73.4,89,30.05,8.0,East,8.1,-,0.01,,Overcast,90,2013-09-10 14:22:00
9:51 AM,78.1,73.9,87,30.00,8.0,East,9.2,-,0.01,,Overcast,100,2013-09-10 14:51:00
10:31 AM,82.4,73.4,74,30.05,10.0,East,9.2,-,N/A,,Mostly Cloudy,100,2013-09-10 15:31:00
10:51 AM,82.9,73.0,72,30.00,10.0,East,11.5,-,N/A,,Mostly Cloudy,90,2013-09-10 15:51:00
11:51 AM,87.1,72.0,61,30.01,10.0,ESE,8.1,-,0.00,,Mostly Cloudy,110,2013-09-10 16:51:00
12:51 PM,89.1,70.0,53,29.99,10.0,East,17.3,23.0,N/A,,Mostly Cloudy,100,2013-09-10 17:51:00
1:08 PM,84.2,73.4,70,30.05,10.0,South,13.8,-,N/A,,Mostly Cloudy,190,2013-09-10 18:08:00
1:51 PM,82.0,73.0,74,29.99,10.0,SSW,12.7,-,N/A,,Mostly Cloudy,200,2013-09-10 18:51:00
2:51 PM,86.0,72.0,63,29.97,10.0,South,8.1,-,N/A,,Mostly Cloudy,170,2013-09-10 19:51:00
3:51 PM,90.0,71.1,54,29.95,10.0,SE,18.4,23.0,N/A,,Mostly Cloudy,130,2013-09-10 20:51:00
4:51 PM,84.9,70.0,61,29.95,10.0,SSE,13.8,-,N/A,,Mostly Cloudy,160,2013-09-10 21:51:00
5:44 PM,84.2,71.6,66,30.01,10.0,East,12.7,-,N/A,,Mostly Cloudy,80,2013-09-10 22:44:00
5:51 PM,84.0,71.1,65,29.96,10.0,East,8.1,-,N/A,,Mostly Cloudy,90,2013-09-10 22:51:00
6:51 PM,82.9,72.0,69,29.97,10.0,East,9.2,-,N/A,,Mostly Cloudy,100,2013-09-10 23:51:00
7:51 PM,78.1,73.0,84,29.99,10.0,SE,9.2,-,0.00,,Mostly Cloudy,140,2013-09-11 00:51:00
8:51 PM,75.9,71.1,85,29.99,10.0,East,4.6,-,N/A,,Partly Cloudy,100,2013-09-11 01:51:00
9:51 PM,77.0,71.1,82,30.00,10.0,Calm,Calm,-,N/A,,Scattered Clouds,0,2013-09-11 02:51:00
10:51 PM,77.0,70.0,79,30.01,10.0,Calm,Calm,-,N/A,,Mostly Cloudy,0,2013-09-11 03:51:00
11:51 PM,75.9,71.1,85,30.02,10.0,Calm,Calm,-,N/A,,Scattered Clouds,0,2013-09-11 04:51:00